EW1867 Weather Reports


Display with metric or nautical units.
time (UTC)temp
F
wind
direction
speed
MPH
gust
MPH
rain 1hr
in
rain 24hr
in
rain mn
in
humidity
%
barometer
mb
20260504050538 60 189 0.0 4.0 0.00 0.00 0.00 72 1012.3
20260504045638 60 208 1.0 5.0 0.00 0.00 0.00 72 1012.3
20260504044738 60 201 1.0 5.0 0.00 0.00 0.00 71 1012.3
20260504042938 61 205 1.0 4.0 0.00 0.00 0.00 70 1012.1
20260504041138 62 205 1.0 5.0 0.00 0.00 0.00 69 1011.9
20260504040238 62 169 1.0 3.0 0.00 0.00 0.00 69 1011.7
20260504035338 62 123 1.0 4.0 0.00 0.00 0.00 69 1011.7
20260504034438 62 124 1.0 3.0 0.00 0.00 0.00 69 1011.6
20260504033539 62 117 1.0 3.0 0.00 0.00 0.00 69 1011.4
20260504032638 63 116 1.0 4.0 0.00 0.00 0.00 68 1011.2
20260504031738 63 127 1.0 3.0 0.00 0.00 0.00 68 1011.3
20260504030838 63 114 1.0 3.0 0.00 0.00 0.00 67 1011.2
20260504025938 64 117 2.0 4.0 0.00 0.00 0.00 66 1011.1
20260504025038 64 212 2.0 7.0 0.00 0.00 0.00 65 1010.9
20260504024138 65 196 2.0 5.0 0.00 0.00 0.00 64 1010.9
20260504023238 65 200 2.0 6.0 0.00 0.00 0.00 63 1010.7
20260504021438 66 212 2.0 6.0 0.00 0.00 0.00 63 1010.6
20260504020539 66 212 1.0 6.0 0.00 0.00 0.00 62 1010.6
20260504015638 67 202 2.0 6.0 0.00 0.00 0.00 61 1010.6
20260504014738 67 221 2.0 6.0 0.00 0.00 0.00 61 1010.7
20260504013838 68 204 1.0 5.0 0.00 0.00 0.00 61 1010.5
20260504012938 68 150 2.0 4.0 0.00 0.00 0.00 60 1010.5
20260504012038 68 207 2.0 6.0 0.00 0.00 0.00 61 1010.5
20260504010238 68 207 2.0 6.0 0.00 0.00 0.00 59 1010.5
20260504005338 69 213 2.0 7.0 0.00 0.00 0.00 60 1010.5
20260504004438 69 221 2.0 6.0 0.00 0.00 0.00 59 1010.6
20260504003538 69 218 3.0 10.0 0.00 0.00 0.00 60 1010.6
20260504001738 70 205 2.0 7.0 0.00 0.00 0.00 59 1010.4
20260504000838 70 217 3.0 7.0 0.00 0.00 0.00 57 1010.3
20260503235038 70 218 2.0 6.0 0.00 0.00 0.00 59 1010.6
20260503234138 69 192 1.0 6.0 0.00 0.00 0.00 58 1010.8
20260503233238 70 138 1.0 4.0 0.00 0.00 0.00 58 1010.8
20260503232338 70 183 1.0 4.0 0.00 0.00 0.00 58 1010.9
20260503231438 69 133 1.0 3.0 0.00 0.00 0.00 60 1010.9
20260503230538 69 113 1.0 4.0 0.00 0.00 0.00 60 1010.8
20260503224738 69 150 1.0 4.0 0.00 0.00 0.00 61 1010.8
20260503222938 68 201 2.0 7.0 0.00 0.00 0.00 61 1010.7
20260503222038 68 201 2.0 7.0 0.00 0.00 0.00 62 1010.7
20260503221138 68 186 3.0 7.0 0.00 0.00 0.00 62 1010.7
20260503220238 67 110 3.0 7.0 0.00 0.00 0.00 63 1010.8
20260503215338 68 192 3.0 8.0 0.00 0.00 0.00 62 1010.8
20260503214438 68 211 3.0 7.0 0.00 0.00 0.00 61 1011.0
20260503213538 68 209 3.0 10.0 0.00 0.00 0.00 62 1011.0
20260503211738 68 191 2.0 7.0 0.00 0.00 0.00 61 1010.9
20260503210838 68 113 2.0 6.0 0.00 0.00 0.00 60 1010.9
20260503205938 69 153 3.0 8.0 0.00 0.00 0.00 59 1011.0
20260503205038 69 184 3.0 8.0 0.00 0.00 0.00 60 1011.2
20260503204138 70 205 3.0 6.0 0.00 0.00 0.00 59 1011.1
20260503201439 68 189 2.0 9.0 0.00 0.00 0.00 62 1011.2
20260503200539 68 184 2.0 6.0 0.00 0.00 0.00 62 1011.2
20260503195638 66 172 2.0 9.0 0.00 0.00 0.00 63 1011.5
20260503194738 67 136 2.0 4.0 0.00 0.00 0.00 63 1011.5
20260503193839 66 110 2.0 5.0 0.00 0.00 0.00 63 1011.5
20260503192938 67 141 2.0 6.0 0.00 0.00 0.00 62 1011.6
20260503192039 67 129 2.0 8.0 0.00 0.00 0.00 62 1011.5
20260503191139 67 123 2.0 7.0 0.00 0.00 0.00 64 1011.6
20260503190238 66 112 3.0 7.0 0.00 0.00 0.00 63 1011.6
20260503185339 66 107 2.0 8.0 0.00 0.00 0.00 64 1011.7
20260503184438 66 118 2.0 6.0 0.00 0.00 0.00 65 1011.7
20260503181738 64 112 2.0 7.0 0.00 0.00 0.00 69 1011.5
20260503180838 63 121 2.0 8.0 0.00 0.00 0.00 69 1011.5
20260503175938 63 116 3.0 8.0 0.00 0.00 0.00 69 1011.6
20260503175038 62 116 3.0 9.0 0.00 0.00 0.00 71 1011.6
20260503174138 62 111 2.0 9.0 0.00 0.00 0.00 71 1011.6
20260503173238 62 121 2.0 6.0 0.00 0.00 0.00 71 1011.7
20260503172338 62 136 2.0 8.0 0.00 0.00 0.00 70 1011.4
20260503171438 62 153 2.0 7.0 0.00 0.00 0.00 70 1011.4
20260503150839 56 114 2.0 4.0 0.00 0.00 0.00 82 1010.3
20260503131138 54 99 2.0 7.0 0.00 0.00 0.00 85 1009.0
20260503130238 54 101 2.0 6.0 0.00 0.00 0.00 86 1008.8
20260503110538 54 103 1.0 6.0 0.00 0.00 0.00 84 1008.9
20260503100238 55 112 1.0 3.0 0.00 0.00 0.00 84 1008.8
20260503081438 56 114 1.0 4.0 0.00 0.00 0.00 83 1009.6
20260503080538 56 114 1.0 2.0 0.00 0.00 0.00 82 1009.6
20260503072938 56 101 1.0 4.0 0.00 0.00 0.00 81 1009.7
20260503072038 56 105 0.0 3.0 0.00 0.00 0.00 81 1009.8
20260503071138 56 0 0.0 3.0 0.00 0.00 0.00 80 1009.7
20260503070238 56 125 0.0 2.0 0.00 0.00 0.00 79 1009.7